Change the Weather History Date:

Monday, March 25, 2013

  Actual Average Record
Temperature  
Mean Temperature 36 °F 53 °F  
Max Temperature 40 °F 64 °F 88 °F (1929)
Min Temperature 32 °F 41 °F 18 °F (1940)
Degree Days  
Heating Degree Days 29 12  
Month to date heating degree days 521 391  
Since 1 July heating degree days 3213 3287  
Cooling Degree Days 0 0  
Month to date cooling degree days 2 0  
Year to date cooling degree days 4 0  
Moisture  
Dew Point 27 °F    
Average Humidity 75    
Maximum Humidity 85    
Minimum Humidity 64    
Precipitation  
Precipitation T in 0.15 in 2.45 in (1965)
Month to date precipitation 4.27 3.46  
Year to date precipitation 19.36 12.04  
Snow  
Snow 0.20 in 0.10 in - ()
Month to date snowfall 1.1 0.8  
Since 1 July snowfall 3.7 5.9  
Snow Depth 0.00 in    
Sea Level Pressure  
Sea Level Pressure 29.79 in    
Wind  
Wind Speed 17 mph (WSW)    
Max Wind Speed 29 mph    
Max Gust Speed 36 mph    
Visibility 4 miles    
Events Snow    
T = Trace of Precipitation, MM = Missing Value Source: NWS Daily Summary

Daily Weather History Graph

Daily Weather History Graph

Search for Another Location

Airport or City:

Trip Planner

Search our weather history database for the weather conditions in past years. The results will help you decide how hot, cold, wet, or windy it might be!

Date:

Astronomy

Mar. 25, 2013 Rise Set
Actual Time 7:32 AM EDT 7:52 PM EDT
Civil Twilight 7:06 AM EDT 8:17 PM EDT
Nautical Twilight 6:36 AM EDT 8:47 PM EDT
Astronomical Twilight 6:06 AM EDT 9:18 PM EDT
Moon 6:24 PM EDT (3/25) 6:12 AM EDT (3/25)
Length of Visible Light 13h 11m
Length of Day
12h 20m
Waxing Gibbous, 96% of the Moon is Illuminated
Mar 25
Waxing Gibbous
Mar 27
Full
Apr 3
Last Quarter
Apr 10
New
Apr 18
First Quarter

Hourly Weather History & Observations

Time (EDT) Temp. Windchill Dew Point Humidity Pressure Visibility Wind Dir Wind Speed Gust Speed Precip Events Conditions
12:53 AM 39.9 °F 30.5 °F 30.9 °F 70% 29.63 in 10.0 mi WSW 19.6 mph 33.4 mph 0.00 in   Overcast
1:53 AM 37.9 °F 27.3 °F 28.9 °F 70% 29.64 in 10.0 mi WSW 21.9 mph 29.9 mph N/A   Overcast
2:53 AM 37.0 °F 26.4 °F 28.0 °F 70% 29.66 in 5.0 mi WSW 20.7 mph 28.8 mph 0.00 in Snow Light Snow
3:51 AM 35.6 °F 24.2 °F 28.4 °F 75% 29.67 in 1.5 mi WSW 21.9 mph 31.1 mph 0.00 in Snow Light Snow
3:53 AM 35.1 °F 23.8 °F 28.0 °F 76% 29.68 in 1.5 mi WSW 20.7 mph 27.6 mph 0.00 in Snow Light Snow
4:02 AM 33.8 °F 24.3 °F 28.4 °F 81% 29.67 in 4.0 mi WSW 13.8 mph - 0.00 in Snow Light Snow
4:24 AM 35.6 °F 24.8 °F 26.6 °F 70% 29.67 in 4.0 mi WSW 19.6 mph - 0.00 in Snow Light Snow
4:43 AM 33.8 °F 23.9 °F 26.6 °F 75% 29.68 in 2.5 mi WSW 15.0 mph 28.8 mph 0.00 in Snow Light Snow
4:53 AM 34.0 °F 26.0 °F 27.0 °F 75% 29.69 in 4.0 mi West 10.4 mph 20.7 mph 0.00 in Snow Light Snow
5:03 AM 33.8 °F 25.8 °F 26.6 °F 75% 29.68 in 2.5 mi WSW 10.4 mph - 0.00 in Snow Light Snow
5:24 AM 32.0 °F 21.2 °F 28.4 °F 87% 29.69 in 1.0 mi WSW 16.1 mph 27.6 mph N/A Snow Light Snow
5:38 AM 33.8 °F 24.3 °F 28.4 °F 81% 29.69 in 5.0 mi WSW 13.8 mph - 0.00 in Snow Light Snow
5:53 AM 33.1 °F 23.0 °F 28.0 °F 82% 29.69 in 5.0 mi SW 15.0 mph - 0.00 in Snow Light Snow
6:19 AM 33.8 °F 22.5 °F 26.6 °F 75% 29.69 in 2.5 mi WSW 19.6 mph - 0.00 in Snow Light Snow
6:27 AM 33.8 °F 22.2 °F 26.6 °F 75% 29.70 in 2.0 mi WSW 20.7 mph - 0.00 in Snow Light Snow
6:53 AM 33.1 °F 22.2 °F 27.0 °F 78% 29.70 in 3.0 mi WSW 17.3 mph - 0.00 in Snow Light Snow
7:07 AM 33.8 °F 21.6 °F 26.6 °F 75% 29.70 in 1.2 mi SW 23.0 mph 32.2 mph 0.00 in Snow Light Snow
7:09 AM 33.8 °F 21.9 °F 26.6 °F 75% 29.70 in 2.0 mi SW 21.9 mph 32.2 mph 0.00 in Snow Light Snow
7:12 AM 32.0 °F 20.1 °F 26.6 °F 80% 29.71 in 1.5 mi SW 19.6 mph 32.2 mph 0.00 in Snow Light Snow
7:15 AM 32.0 °F 21.2 °F 26.6 °F 80% 29.71 in 1.0 mi SW 16.1 mph - 0.00 in Snow Light Snow
7:42 AM 32.0 °F 21.2 °F 28.4 °F 87% 29.72 in 2.0 mi SW 16.1 mph 24.2 mph N/A Snow Light Snow
7:50 AM 32.0 °F 21.2 °F 28.4 °F 87% 29.72 in 3.0 mi SW 16.1 mph - 0.00 in Snow Light Snow
7:53 AM 32.0 °F 21.2 °F 28.0 °F 85% 29.72 in 3.0 mi SW 16.1 mph - 0.00 in Snow Light Snow
8:28 AM 33.8 °F 23.9 °F 26.6 °F 75% 29.72 in 2.5 mi SW 15.0 mph 24.2 mph 0.00 in Snow Light Snow
8:45 AM 33.8 °F 23.5 °F 26.6 °F 75% 29.73 in 2.0 mi SW 16.1 mph 24.2 mph 0.00 in Snow Light Snow
8:46 AM 33.8 °F 23.9 °F 26.6 °F 75% 29.73 in 1.5 mi SW 15.0 mph 24.2 mph 0.00 in Snow Light Snow
8:53 AM 33.1 °F 22.2 °F 27.0 °F 78% 29.74 in 1.5 mi SW 17.3 mph - 0.00 in Snow Light Snow
9:23 AM 33.8 °F 23.2 °F 26.6 °F 75% 29.75 in 5.0 mi SW 17.3 mph 24.2 mph 0.00 in Snow Light Snow
9:39 AM 33.8 °F 22.2 °F 26.6 °F 75% 29.75 in 5.0 mi WSW 20.7 mph 28.8 mph 0.00 in Snow Light Snow
9:53 AM 34.0 °F 22.1 °F 27.0 °F 75% 29.76 in 3.0 mi SW 21.9 mph 29.9 mph 0.00 in Snow Light Snow
10:15 AM 33.8 °F 21.6 °F 26.6 °F 75% 29.77 in 1.5 mi WSW 23.0 mph 32.2 mph 0.00 in Snow Light Snow
10:40 AM 33.8 °F 22.8 °F 28.4 °F 81% 29.78 in 1.5 mi WSW 18.4 mph - 0.00 in Snow Light Snow
10:50 AM 33.8 °F 22.5 °F 28.4 °F 81% 29.78 in 5.0 mi WSW 19.6 mph 26.5 mph 0.00 in Snow Light Snow
10:53 AM 34.0 °F 21.8 °F 28.0 °F 79% 29.79 in 5.0 mi WSW 23.0 mph 27.6 mph 0.00 in Snow Light Snow
11:53 AM 36.0 °F 26.0 °F 27.0 °F 70% 29.82 in 7.0 mi WSW 17.3 mph 28.8 mph 0.00 in Snow Light Snow
12:53 PM 37.0 °F 26.7 °F 26.1 °F 65% 29.82 in 8.0 mi West 19.6 mph 29.9 mph 0.00 in Snow Light Snow
1:04 PM 37.4 °F 25.4 °F 26.6 °F 65% 29.81 in 2.5 mi WSW 27.6 mph 35.7 mph 0.00 in Snow Light Snow
1:14 PM 35.6 °F 25.9 °F 26.6 °F 70% 29.82 in 5.0 mi West 16.1 mph 33.4 mph 0.00 in Snow Light Snow
1:53 PM 37.0 °F 28.1 °F 27.0 °F 67% 29.84 in 7.0 mi West 15.0 mph 28.8 mph 0.00 in Snow Light Snow
2:13 PM 37.4 °F 26.4 °F 26.6 °F 65% 29.83 in 2.0 mi WSW 23.0 mph 31.1 mph 0.00 in Snow Light Snow
2:15 PM 35.6 °F 23.7 °F 26.6 °F 70% 29.83 in 1.5 mi WSW 24.2 mph 31.1 mph 0.00 in Snow Light Snow
2:17 PM 35.6 °F 23.4 °F 28.4 °F 75% 29.83 in 1.0 mi WSW 25.3 mph 31.1 mph 0.00 in Snow Light Snow
2:32 PM 35.6 °F 26.6 °F 28.4 °F 75% 29.83 in 3.0 mi WSW 13.8 mph 23.0 mph 0.00 in Snow Light Snow
2:42 PM 37.4 °F 28.5 °F 28.4 °F 70% 29.83 in 7.0 mi West 15.0 mph 28.8 mph 0.00 in   Overcast
2:53 PM 35.1 °F 24.5 °F 27.0 °F 72% 29.85 in 2.0 mi WSW 18.4 mph 28.8 mph 0.00 in Snow Light Snow
2:55 PM 35.6 °F 25.5 °F 28.4 °F 75% 29.83 in 3.0 mi WSW 17.3 mph 28.8 mph 0.00 in Snow Light Snow
3:02 PM 35.6 °F 25.9 °F 26.6 °F 70% 29.84 in 3.0 mi West 16.1 mph 25.3 mph 0.00 in Snow Light Snow
3:20 PM 37.4 °F 25.6 °F 26.6 °F 65% 29.83 in 7.0 mi WSW 26.5 mph 32.2 mph 0.00 in Snow Light Snow
3:53 PM 37.9 °F 29.6 °F 26.1 °F 62% 29.86 in 7.0 mi West 13.8 mph 24.2 mph 0.00 in Snow Light Snow
4:53 PM 37.0 °F 26.7 °F 28.0 °F 70% 29.88 in 7.0 mi WSW 19.6 mph 33.4 mph 0.00 in Snow Light Snow
5:31 PM 37.4 °F 26.4 °F 26.6 °F 65% 29.88 in 2.0 mi WSW 23.0 mph 34.5 mph 0.00 in Snow Light Snow
5:53 PM 36.0 °F 24.4 °F 28.0 °F 73% 29.91 in 4.0 mi WSW 23.0 mph 31.1 mph 0.00 in Snow Light Snow
6:53 PM 36.0 °F 25.6 °F 24.1 °F 62% 29.94 in 7.0 mi West 18.4 mph 29.9 mph 0.00 in   Mostly Cloudy
7:53 PM 35.1 °F 24.8 °F 26.1 °F 70% 29.98 in 7.0 mi WSW 17.3 mph 25.3 mph 0.00 in Snow Light Snow
8:53 PM 34.0 °F 24.2 °F 25.0 °F 70% 29.99 in 7.0 mi WSW 15.0 mph - 0.00 in   Overcast
9:25 PM 33.8 °F 24.3 °F 24.8 °F 70% 29.99 in 7.0 mi WSW 13.8 mph - 0.00 in Snow Light Snow
9:53 PM 34.0 °F 24.2 °F 25.0 °F 70% 30.02 in 7.0 mi WSW 15.0 mph - 0.00 in Snow Light Snow
10:53 PM 33.1 °F 23.0 °F 25.0 °F 72% 30.03 in 7.0 mi WSW 15.0 mph - 0.00 in Snow Light Snow
11:53 PM 33.1 °F 23.9 °F 25.0 °F 72% 30.04 in 5.0 mi WSW 12.7 mph - 0.00 in Snow Light Snow